Weather History for Blythe, CA

Change the Weather History Date:

Sunday, September 15, 2013

  Actual Average Record
Temperature  
Mean Temperature 92 °F -  
Max Temperature 108 °F 100 °F 113 °F (2000)
Min Temperature 78 °F 73 °F 62 °F (2005)
Cooling Degree Days 28    
Growing Degree Days 42 (Base 50)    
Moisture  
Dew Point 52 °F    
Average Humidity 26    
Maximum Humidity 40    
Minimum Humidity 14    
Precipitation  
Precipitation 0.00 in - - ()
Sea Level Pressure  
Sea Level Pressure 29.64 in    
Wind  
Wind Speed 3 mph (WNW)    
Max Wind Speed 8 mph    
Max Gust Speed -    
Visibility 10 miles    
Events      
Averages and records for this station are not official NWS values.
T = Trace of Precipitation, MM = Missing Value Source: NWS Daily Summary

Daily Weather History Graph

Daily Weather History Graph

Search for Another Location

Airport:

Trip Planner

Search our weather history database for the weather conditions in past years. The results will help you decide how hot, cold, wet, or windy it might be!

Date:

Astronomy

Sep. 15, 2013 Rise Set
Actual Time 6:22 AM PDT 6:44 PM PDT
Civil Twilight 5:57 AM PDT 7:09 PM PDT
Nautical Twilight 5:28 AM PDT 7:38 PM PDT
Astronomical Twilight 4:58 AM PDT 8:08 PM PDT
Moon 4:07 PM PDT (9/15) 2:14 AM PDT (9/15)
Length of Visible Light 13h 12m
Length of Day
12h 22m
Waxing Gibbous, 83% of the Moon is Illuminated
Sep 15
Waxing Gibbous
Sep 19
Full
Sep 26
Last Quarter
Oct 4
New
Oct 11
First Quarter

Hourly Weather History & Observations

Time (PDT) Temp. Heat Index Dew Point Humidity Pressure Visibility Wind Dir Wind Speed Gust Speed Precip Events Conditions
12:52 AM 88.0 °F - 48.9 °F 26% 29.60 in 10.0 mi NNW 3.5 mph - N/A   Clear
1:52 AM 82.9 °F - 51.1 °F 33% 29.60 in 10.0 mi North 6.9 mph - N/A   Clear
2:52 AM 81.0 °F - 52.0 °F 36% 29.60 in 10.0 mi NW 3.5 mph - N/A   Clear
3:52 AM 79.0 °F - 53.1 °F 40% 29.61 in 10.0 mi NE 5.8 mph - N/A   Clear
4:52 AM 80.1 °F - 52.0 °F 38% 29.62 in 10.0 mi NW 3.5 mph - N/A   Clear
5:52 AM 78.1 °F - 52.0 °F 40% 29.64 in 10.0 mi Calm Calm - N/A   Clear
6:52 AM 80.1 °F 80.0 °F 54.0 °F 40% 29.65 in 10.0 mi Calm Calm - N/A   Clear
7:52 AM 84.9 °F - 52.0 °F 32% 29.67 in 10.0 mi Calm Calm - N/A   Clear
8:52 AM 91.9 °F - 50.0 °F 24% 29.68 in 10.0 mi Calm Calm - N/A   Clear
9:52 AM 96.1 °F 93.5 °F 53.1 °F 23% 29.70 in 10.0 mi Calm Calm - N/A   Clear
10:52 AM 99.0 °F 96.9 °F 54.0 °F 22% 29.70 in 10.0 mi Variable 3.5 mph - N/A   Clear
11:52 AM 102.9 °F - 52.0 °F 18% 29.68 in 10.0 mi East 8.1 mph - N/A   Clear
12:52 PM 105.1 °F - 48.0 °F 15% 29.67 in 10.0 mi Variable 5.8 mph - N/A   Clear
1:52 PM 105.1 °F - 48.9 °F 15% 29.65 in 10.0 mi Variable 3.5 mph - N/A   Scattered Clouds
2:52 PM 107.1 °F - 48.0 °F 14% 29.63 in 10.0 mi Calm Calm - N/A   Scattered Clouds
3:52 PM 107.1 °F - 48.0 °F 14% 29.61 in 10.0 mi Calm Calm - N/A   Mostly Cloudy
4:52 PM 106.0 °F - 48.9 °F 15% 29.60 in 10.0 mi SSE 6.9 mph - N/A   Mostly Cloudy
5:52 PM 105.1 °F - 50.0 °F 16% 29.60 in 10.0 mi South 6.9 mph - N/A   Scattered Clouds
6:52 PM 102.0 °F - 52.0 °F 19% 29.60 in 10.0 mi SSW 3.5 mph - N/A   Partly Cloudy
7:52 PM 99.0 °F 96.5 °F 53.1 °F 21% 29.62 in 10.0 mi Calm Calm - N/A   Clear
8:52 PM 96.1 °F - 52.0 °F 22% 29.63 in 10.0 mi Calm Calm - N/A   Clear
9:52 PM 90.0 °F 88.6 °F 57.0 °F 33% 29.64 in 10.0 mi North - - N/A   Clear
10:52 PM 91.0 °F 89.2 °F 55.9 °F 30% 29.65 in 10.0 mi WSW 6.9 mph - N/A   Clear
11:52 PM 89.1 °F 87.3 °F 55.9 °F 32% 29.65 in 10.0 mi West 4.6 mph - N/A   Clear